Tracking 19562 objects as of 22-Mar-2019
HD Live streaming from Space Station
objects crossing your sky now

BEIDOU 3M18

Track BEIDOU 3M18 now!
BEIDOU 3M18 is classified as:


NORAD ID: 43707
Int'l Code: 2018-093B
Perigee: 21,516.2 km
Apogee: 21,554.0 km
Inclination: 54.9 °
Period: 773.2 minutes
Semi major axis: 27906 km
RCS: Unknown
Launch date: November 18, 2018
Source: People's Republic of China (PRC)
Launch site: Xichang Space Center, China (XSC)
aabbcc
Your satellite tracking list
Your tracking list is empty




NASA's NSSDC Master Catalog

Two Line Element Set (TLE):
1 43707U 18093B   19080.69349440 -.00000006 +00000-0 +00000-0 0  9996
2 43707 054.9113 272.5215 0006763 288.3255 072.6197 01.86231874002289
Source of the keplerian elements: AFSPC